AirNav   Air Wisconsin pilot careers
 
 961 users online  

MO05 Truman Medical Center West Heliport
Kansas City, Missouri, USA

GOING TO KANSAS CITY?


FAA INFORMATION EFFECTIVE 25 APRIL 2019

Location

FAA Identifier: MO05
Lat/Long: 39-05-03.0000N / 094-34-27.0000W
39-05.050000N / 094-34.450000W
39.0841667 / -94.5741667
(estimated)
Elevation: 983 ft. / 300 m (estimated)
Variation: 04E (1995)
Time zone: UTC -5 (UTC -6 during Standard Time)
Zip code: 64108

Heliport Operations

Heliport use: Private use, MEDICAL USE.
Activation date: 01/2000
Control tower: no
ARTCC: KANSAS CITY CENTER
FSS: COLUMBIA FLIGHT SERVICE STATION
Attendance: UNATNDD
Wind indicator: yes
Segmented circle: no
Lights: FOR PERIMETER LGTS CALL 816-373-4415.
Beacon: white-green-yellow (heliport)
FOR ROTG BCN CALL 816-373-4415.

Heliport Communications

WX ASOS at MKC (2.5 nm N): PHONE 816-329-2843
WX ASOS at LXT (12 nm SE): 124.175 (816-347-9807)
WX ASOS at MCI (14 nm NW): PHONE 816-329-2808
WX ASOS at OJC (16 nm SW): PHONE 913-780-6969
WX AWOS-3 at GPH (19 nm NE): 120.275 (816-407-3399)

Nearby radio navigation aids

VOR radial/distance  VOR name  Freq  Var
MCIr143/14.2KANSAS CITY VORTAC113.2505E
ANXr261/20.7NAPOLEON VORTAC114.0007E

Heliport Services

Runway Information

Helipad H1

Dimensions: 50 x 50 ft. / 15 x 15 m
Surface: concrete
Runway edge lights: PERI
Latitude: 39-05.050000N
Longitude: 094-34.450000W
Elevation: 983.0 ft.
Traffic pattern: leftleft

Heliport Ownership and Management from official FAA records

Ownership: Privately-owned
Owner: TRUMAN MEDICAL CENTER WEST
7900 LEE'S SUMMIT RD
KANSAS CITY, MO 64139
Phone 816-373-4415
EXT. 1292.
Manager: MICHAEL SULLIVAN
2301 HOLMES ST.
KANSAS CITY, MO 64108
Phone 816-404-2620
ASSOC. ADMIN./FACILITIES

Additional Remarks

OWNER DESIRES HELIPORT NOT BE CHARTED.
FOR CD CTC KANSAS CITY APCH AT 816-329-2710.

Instrument Procedures

There are no published instrument procedures at MO05.

Some nearby airports with instrument procedures:

KMKC - Charles B Wheeler Downtown Airport (2 nm N)
KLXT - Lee's Summit Municipal Airport (12 nm SE)
KMCI - Kansas City International Airport (14 nm NW)
KOJC - Johnson County Executive Airport (16 nm SW)
3GV - East Kansas City Airport (17 nm E)
KGPH - Midwest National Air Center Airport (19 nm NE)
 
Loc | Ops | Rwys | IFR | FBO | Links
Com | Nav | Svcs | Stats | Notes

Kansas City Aviation Department
 
Area around MO05 (Truman Medical Center West Heliport)
 
Road maps at: MapQuest Bing Google
 
Aerial photo
No photo
 
Sectional chart

 
Airport distance calculator
Flying to Truman Medical Center West Heliport? Find the distance to fly.

From to MO05

Sunrise and sunset
Times for 24-Apr-2019
 Local
(UTC-5)
 Zulu
(UTC)
Morning civil twilight06:0211:02
Sunrise06:3011:30
Sunset20:0301:03
Evening civil twilight20:3101:31

Current date and time
Zulu (UTC)  25-Apr-2019 01:18:12
Local (UTC-5)  24-Apr-2019 20:18:12
 
METAR
KMKC 
2nm NW 
250054Z 15007KT 10SM CLR 17/12 A2983 RMK AO2 SLP099 T01720117
KLXT 
12nm SE 
250053Z AUTO 16007KT 9SM OVC031 16/12 A2985 RMK AO2 SLP107 T01560117
KMCI 
15nm NW 
250053Z 16006KT 9SM FEW036 BKN250 15/11 A2982 RMK AO2 SLP096 T01500111
KOJC 
16nm SW 
250053Z 18005KT 10SM CLR 14/11 A2984 RMK AO2 SLP103 T01440111
KGPH 
19nm NE 
250055Z AUTO 15003KT 10SM BKN033 17/11 A2983 RMK AO2
TAF
KMKC 
2nm NW 
242131Z 2422/2518 VRB03KT P6SM SCT030 BKN200 TEMPO 2422/2424 BKN025 FM250100 VRB03KT P6SM FEW200 FM250900 VRB03KT 3SM BR SKC FM251300 29005KT P6SM SCT150
KMCI 
15nm NW 
242130Z 2422/2518 VRB03KT P6SM SCT030 BKN200 TEMPO 2422/2424 BKN025 FM250100 VRB03KT P6SM FEW200 FM250900 VRB03KT 3SM BR SKC FM251300 29006KT P6SM SCT150
NOTAMs
Click for the latest NOTAMs
NOTAMs are issued by the DoD/FAA and will open in a separate window not controlled by AirNav.

 

 
 

Would you like to see your business listed on this page?

 If your business provides an interesting product or service to pilots, flight crews, aircraft, or users of the Truman Medical Center West Heliport, you should consider listing it here.  To start the listing process, click on the button below
 
Add a business
 

Other Pages about Truman Medical Center West Heliport

Update a link
 
Copyright © AirNav, LLC. All rights reserved. Privacy Policy  Contact